CST,Max TemperatureF,Mean TemperatureF,Min TemperatureF,Max Dew PointF,MeanDew PointF,Min DewpointF,Max Humidity, Mean Humidity, Min Humidity, Max Sea Level PressureIn, Mean Sea Level PressureIn, Min Sea Level PressureIn, Max VisibilityMiles, Mean VisibilityMiles, Min VisibilityMiles, Max Wind SpeedMPH, Mean Wind SpeedMPH, Max Gust SpeedMPH,PrecipitationIn, CloudCover, Events, WindDirDegrees
2013-1-1,19,7,-5,16,4,-9,93,81,72,30.23,30.15,30.01,10,10,3,16,7,,0.00,6,,227
2013-1-2,30,18,5,27,15,1,100,85,74,30.12,29.98,29.92,10,7,1,21,9,24,0.00,7,,248
2013-1-3,17,12,6,12,7,1,92,79,67,30.28,30.21,30.12,10,8,2,22,15,28,0.00,3,,287
2013-1-4,28,18,8,18,12,1,92,72,59,30.12,30.09,30.05,10,10,10,21,13,26,0.00,0,,238
2013-1-5,28,17,6,19,10,3,92,80,68,30.07,29.95,29.85,10,10,5,24,10,29,0.00,1,,240
2013-1-6,21,16,10,14,10,5,92,77,63,30.23,30.13,30.00,10,10,10,20,13,26,0.00,1,,246
2013-1-7,35,27,19,27,20,16,93,77,65,29.99,29.94,29.89,10,10,10,28,16,33,0.00,0,,215
2013-1-8,33,22,10,28,18,7,100,85,73,29.97,29.86,29.72,10,8,0,20,8,22,0.00,2,,194
2013-1-9,37,32,26,27,24,19,86,76,60,30.36,30.22,29.97,10,10,10,17,13,23,0.00,1,,230
2013-1-10,35,30,26,32,26,19,93,77,65,30.28,30.01,29.68,10,8,1,20,16,23,0.10,4,,156
2013-1-11,39,36,32,37,33,28,93,92,81,29.67,29.49,29.37,10,2,0,22,13,26,0.01,8,,173
2013-1-12,30,18,5,27,6,-2,86,69,58,30.05,29.88,29.47,10,10,3,30,20,37,0.00,6,,284
2013-1-13,12,6,1,3,0,-6,85,74,53,30.23,30.11,30.02,10,9,5,21,13,23,0.00,4,,303
2013-1-14,21,13,5,10,6,1,85,74,58,30.38,30.30,30.23,10,10,10,13,7,,0.00,1,,233
2013-1-15,32,22,12,18,13,7,85,70,51,30.26,30.12,29.88,10,10,10,18,12,23,0.00,0,,205
2013-1-16,37,29,21,32,24,14,86,77,69,30.04,29.81,29.71,10,10,7,22,16,29,0.00,6,,259
2013-1-17,15,10,6,1,-2,-4,73,62,48,30.37,30.31,30.23,10,10,10,13,9,17,0.00,4,,298
2013-1-18,51,45,39,30,28,27,65,51,41,29.85,29.81,29.76,10,10,10,21,15,25,0.00,0,,243
2013-1-19,48,28,8,30,21,-2,67,57,46,30.25,29.91,29.72,10,10,10,33,14,44,0.00,3,,281
2013-1-20,15,9,3,3,-1,-6,73,63,53,30.39,30.31,30.26,10,9,2,23,16,30,0.00,5,,303
2013-1-21,6,0,-5,-6,-10,-17,72,61,48,30.35,30.29,30.26,10,10,7,24,17,31,0.00,1,,297
2013-1-22,17,6,-2,7,-4,-11,78,60,45,30.36,30.29,30.19,10,10,10,10,7,,0.00,3,,270
2013-1-23,21,10,0,10,2,-11,68,60,49,30.54,30.26,30.11,10,10,4,29,13,37,0.00,5,,301
2013-1-24,19,10,0,1,-7,-11,66,49,35,30.59,30.40,30.13,10,10,7,23,12,30,0.00,2,,124
2013-1-25,28,17,6,18,3,-2,67,55,36,30.28,30.12,29.98,10,10,2,28,14,38,0.00,3,,285
2013-1-26,33,18,3,12,4,-2,78,56,37,30.31,30.19,30.05,10,10,10,22,9,26,0.00,4,,146
2013-1-27,37,34,30,30,24,12,75,63,44,30.05,29.88,29.77,10,6,0,21,14,26,0.06,7,,151
2013-1-28,37,34,32,30,29,25,81,75,70,29.88,29.79,29.58,2,0,0,10,1,,0.00,8,,150
2013-1-29,37,32,28,30,26,21,80,73,69,29.73,29.64,29.53,10,5,0,21,9,26,0.02,8,,335
2013-1-30,28,17,6,19,10,-2,74,68,58,29.83,29.72,29.63,10,10,5,28,21,34,0.00,7,,321
2013-1-31,6,0,-5,-2,-8,-15,78,66,60,30.30,30.06,29.83,10,10,4,28,19,34,0.00,4,,301